[[{"header":{"parameterUnit":"m.s-1","parameterCategory":1,"la1":30.2991,"la2":30.254,"lo1":-89.0895,"lo2":-89.0444,"dy":0.0017,"dx":0.0017,"nx":28,"ny":28,"refTime":"2024-05-19T21:00:00:Z","depth":0,"parameterNumber":2,"parameterNumberName":"U-component_of_WINDS"},"data":[0,0,0,0,0,0,0,0,0,0,0,0,0,0,0,0,0,0,0,0,0,0,0,0,0,0,0,0,0,0,0,0,0,0,0,0,0,0,0,0,0,0,0,0,0,0,0,0,0,0,0,0,0,0,0,0,0,0,-2.1441,-2.1441,0,-2.1439,-2.1439,-2.1439,-2.1427,-2.1426,-2.1426,-2.1426,-2.1422,-2.1423,-2.1423,0,0,0,0,0,0,0,0,0,0,0,0,0,-2.1436,-2.1436,-2.1441,-2.1441,-2.1441,-2.1439,-2.1439,-2.1439,-2.1427,-2.1426,-2.1426,-2.1426,-2.1422,-2.1423,-2.1423,0,0,0,0,0,0,0,0,0,0,0,0,0,-2.1436,-2.1436,-2.1441,-2.1435,-2.1434,-2.1439,-2.1439,-2.1439,-2.1427,-2.1426,-2.1426,-2.1425,-2.1422,-2.1423,-2.1423,-2.1434,0,0,-2.1424,-2.1424,0,0,0,0,0,0,0,0,-2.1436,-2.1436,-2.1436,-2.1435,-2.1435,-2.1433,-2.1436,-2.1437,-2.1427,-2.143,-2.1426,-2.1425,-2.1426,-2.1426,-2.1427,-2.1433,-2.1433,-2.1424,-2.1424,-2.1424,-2.1424,0,0,0,0,0,0,0,-2.1436,-2.1436,-2.144,-2.1436,-2.1435,-2.1432,-2.1432,-2.1436,-2.143,-2.1429,-2.1428,-2.1428,-2.1426,-2.1426,-2.1426,-2.1433,-2.1424,-2.1424,-2.1424,-2.1424,-2.145,-2.1451,0,0,0,0,0,0,-2.1437,-2.1437,-2.1441,-2.144,-2.1434,-2.1433,-2.1432,-2.1434,-2.143,-2.1429,-2.1429,-2.1428,-2.1426,-2.1426,-2.1426,-2.1439,-2.1424,-2.1424,-2.1425,-2.145,-2.145,-2.1451,0,0,0,0,0,0,-2.1437,-2.1438,-2.1441,-2.1438,-2.1438,-2.1433,-2.1435,-2.1434,-2.1435,-2.143,-2.1429,-2.143,-2.1426,-2.1426,-2.1432,-2.1439,-2.1424,-2.1425,-2.1449,-2.145,-2.1451,-2.1464,0,0,0,0,0,0,-2.1437,-2.1438,-2.1441,-2.1438,-2.1439,-2.1446,-2.1435,-2.1434,-2.1435,-2.1434,-2.1431,-2.143,-2.1425,-2.1432,-2.1433,-2.1439,-2.1425,-2.1448,-2.1449,-2.145,-2.1463,-2.1465,-2.1467,0,0,0,0,0,-2.1437,-2.1445,-2.1441,-2.1442,-2.1443,-2.1447,-2.1447,-2.1441,-2.1436,-2.1439,-2.1437,-2.143,-2.1438,-2.1433,-2.1433,-2.144,-2.1448,-2.1449,-2.145,-2.1462,-2.1465,-2.1467,0,0,0,0,0,0,-2.1447,-2.1444,-2.144,-2.1448,-2.1448,-2.1445,-2.1449,-2.1444,-2.1445,-2.1444,-2.1437,-2.1437,-2.1444,-2.1443,-2.1437,-2.1451,-2.1442,-2.1444,-2.1451,-2.1453,-2.1455,-2.1455,-2.1425,0,0,0,0,0,-2.1451,-2.1454,-2.1451,-2.1457,-2.1458,-2.1454,-2.1455,-2.1451,-2.1451,-2.145,-2.1448,-2.1448,-2.1451,-2.1452,-2.1454,-2.1464,-2.1463,-2.1469,-2.1471,-2.1472,-2.1473,-2.1479,-2.1481,-2.1455,-2.1455,-2.1455,0,0,-2.1457,-2.1456,-2.1458,-2.146,-2.1459,-2.1463,-2.1453,-2.1457,-2.146,-2.1451,-2.1457,-2.1456,-2.1455,-2.1463,-2.1467,-2.1462,-2.1481,-2.1474,-2.1475,-2.1475,-2.148,-2.1483,-2.1485,-2.1456,-2.1455,-2.1455,0,0,-2.147,-2.147,-2.1476,-2.1476,-2.1476,-2.1473,-2.1475,-2.1473,-2.1472,-2.1478,-2.1472,-2.1475,-2.148,-2.148,-2.1481,-2.1497,-2.1491,-2.1498,-2.1508,-2.1514,-2.1516,-2.1518,-2.1523,-2.1526,-2.15,-2.15,-2.15,0,-2.1478,-2.1483,-2.1479,-2.1484,-2.1485,-2.1478,-2.1485,-2.1485,-2.1486,-2.1487,-2.1482,-2.1489,-2.1488,-2.1496,-2.1501,-2.1502,-2.1503,-2.1497,-2.1516,-2.1518,-2.1519,-2.1525,-2.1527,-2.15,-2.15,-2.15,-2.15,0,-2.1493,-2.1497,-2.1502,-2.1503,-2.1505,-2.1511,-2.1508,-2.1511,-2.1508,-2.1506,-2.1513,-2.1512,-2.1514,-2.1517,-2.1513,-2.1525,-2.1522,-2.1517,-2.1508,-2.1523,-2.1528,-2.153,-2.1501,-2.1501,-2.1501,-2.1501,0,0,-2.151,-2.1511,-2.1513,-2.1514,-2.1515,-2.1518,-2.1524,-2.1527,-2.1529,-2.1531,-2.1536,-2.1541,-2.1537,-2.1538,-2.1535,-2.154,-2.1553,-2.1534,-2.1534,-2.1537,-2.1567,-2.157,-2.1572,-2.155,-2.1551,-2.1551,-2.1566,0,-2.1523,-2.1533,-2.153,-2.154,-2.1544,-2.1539,-2.1544,-2.1546,-2.1545,-2.1549,-2.1548,-2.1552,-2.1546,-2.1546,-2.1552,-2.155,-2.1559,-2.155,-2.1554,-2.1554,-2.1553,-2.1575,-2.1577,-2.1592,-2.1568,-2.1569,-2.1569,0,-2.1538,-2.1541,-2.1551,-2.1553,-2.1554,-2.1559,-2.1562,-2.1566,-2.1568,-2.1567,-2.1569,-2.1566,-2.1573,-2.1565,-2.1574,-2.1568,-2.1571,-2.1571,-2.1571,-2.157,-2.1561,-2.1573,-2.1596,-2.1598,-2.1572,-2.1572,-2.1572,0,-2.1549,-2.1556,-2.1563,-2.1564,-2.1566,-2.157,-2.1571,-2.1572,-2.1575,-2.1578,-2.158,-2.1584,-2.1586,-2.1589,-2.1587,-2.1582,-2.1597,-2.1589,-2.1596,-2.1596,-2.1598,-2.1597,-2.162,-2.1601,-2.1601,-2.1601,-2.1601,0,-2.1563,-2.1569,-2.1568,-2.1573,-2.158,-2.1578,-2.1586,-2.1586,-2.1588,-2.1593,-2.1589,-2.1594,-2.1592,-2.1596,-2.1595,-2.1603,-2.1604,-2.1604,-2.1603,-2.1603,-2.1603,-2.1603,-2.1602,-2.1602,-2.1602,-2.1602,-2.1602,0,-2.1576,-2.1576,-2.1583,-2.1585,-2.1586,-2.1591,-2.1593,-2.1597,-2.1597,-2.1603,-2.1605,-2.1605,-2.161,-2.1609,-2.1615,-2.1614,-2.1624,-2.1623,-2.1623,-2.1622,-2.1629,-2.1628,-2.1652,-2.1655,-2.1635,-2.1635,-2.1636,0,-2.1584,-2.1589,-2.1592,-2.1595,-2.1596,-2.1601,-2.1604,-2.1603,-2.1606,-2.161,-2.1614,-2.162,-2.1623,-2.1633,-2.1633,-2.1638,-2.1636,-2.1644,-2.1637,-2.1637,-2.1635,-2.1635,-2.1635,-2.1645,-2.1645,-2.1646,-2.1646,0,-2.1598,-2.1598,-2.1602,-2.1607,-2.1611,-2.1615,-2.1618,-2.1621,-2.162,-2.1624,-2.163,-2.1633,-2.164,-2.1645,-2.165,-2.1652,-2.1649,-2.1649,-2.165,-2.165,-2.165,-2.1649,-2.1626,-2.1647,-2.1647,-2.1647,-2.1647,-2.1647,-2.1608,-2.1613,-2.1616,-2.1621,-2.1624,-2.1627,-2.1632,-2.1633,-2.1638,-2.1643,-2.1643,-2.165,-2.1653,-2.166,-2.1662,-2.1667,-2.1664,-2.1667,-2.1667,-2.1668,-2.1668,-2.165,-2.1668,-2.1668,-2.1668,-2.1668,-2.1668,0,-2.1622,-2.1624,-2.1629,-2.1634,-2.1639,-2.1637,-2.1641,-2.1645,-2.1651,-2.1654,-2.1659,-2.1666,-2.1672,-2.1674,-2.168,-2.1684,-2.1682,-2.1685,-2.1684,-2.1684,-2.1671,-2.1668,-2.1686,-2.1686,-2.1686,-2.1686,-2.1686,-2.1686,-2.163,-2.1637,-2.1638,-2.1647,-2.165,-2.1656,-2.1659,-2.1662,-2.1665,-2.1674,-2.1679,-2.168,-2.1683,-2.169,-2.1695,-2.1696,-2.1698,-2.1701,-2.17,-2.1687,-2.1685,-2.1684,-2.1681,-2.1701,-2.1701,-2.1714,-2.1714,-2.1714]},{"header":{"parameterUnit":"m.s-1","parameterCategory":1,"la1":30.2991,"la2":30.254,"lo1":-89.0895,"lo2":-89.0444,"dy":0.0017,"dx":0.0017,"nx":28,"ny":28,"refTime":"2024-05-19T21:00:00:Z","depth":0,"parameterNumber":3,"parameterNumberName":"V-component_of_WINDS"},"data":[0,0,0,0,0,0,0,0,0,0,0,0,0,0,0,0,0,0,0,0,0,0,0,0,0,0,0,0,0,0,0,0,0,0,0,0,0,0,0,0,0,0,0,0,0,0,0,0,0,0,0,0,0,0,0,0,0,0,2.8042,2.8042,0,2.8062,2.8062,2.8063,2.8138,2.8139,2.8141,2.8143,2.8159,2.8158,2.8157,0,0,0,0,0,0,0,0,0,0,0,0,0,2.8065,2.8064,2.8042,2.8042,2.8042,2.8062,2.8062,2.8063,2.8137,2.8139,2.8142,2.8143,2.816,2.8158,2.8157,0,0,0,0,0,0,0,0,0,0,0,0,0,2.8067,2.8064,2.8042,2.8082,2.8086,2.8062,2.8062,2.8063,2.8137,2.8139,2.8142,2.8144,2.816,2.8159,2.8157,2.8094,0,0,2.8151,2.8151,0,0,0,0,0,0,0,0,2.8067,2.8066,2.8076,2.8079,2.8084,2.81,2.8077,2.8073,2.8136,2.8117,2.8143,2.8146,2.8137,2.8138,2.8136,2.8095,2.8096,2.8151,2.815,2.815,2.8149,0,0,0,0,0,0,0,2.8067,2.8066,2.805,2.8076,2.8081,2.8098,2.8101,2.8076,2.8112,2.8119,2.8125,2.8126,2.814,2.8137,2.8137,2.8096,2.8151,2.815,2.8149,2.8148,2.8006,2.8003,0,0,0,0,0,0,2.8061,2.8065,2.8049,2.805,2.8082,2.8096,2.8099,2.8092,2.8113,2.8119,2.8124,2.813,2.8139,2.8138,2.8137,2.8066,2.815,2.8148,2.8147,2.8008,2.8005,2.8002,0,0,0,0,0,0,2.8061,2.8059,2.8048,2.8059,2.8059,2.8093,2.8084,2.8091,2.8089,2.8117,2.8123,2.8115,2.8141,2.814,2.8105,2.8068,2.8147,2.8146,2.8012,2.8007,2.8003,2.7922,0,0,0,0,0,0,2.8062,2.8059,2.8036,2.8058,2.8058,2.8016,2.8082,2.809,2.8086,2.8093,2.811,2.8115,2.8143,2.8107,2.8103,2.8067,2.8144,2.8015,2.801,2.8005,2.7928,2.7916,2.7905,0,0,0,0,0,2.8062,2.8011,2.8035,2.8032,2.8031,2.8014,2.8014,2.8048,2.8082,2.8059,2.8078,2.8114,2.8072,2.8103,2.8099,2.8061,2.8017,2.8011,2.8005,2.7933,2.7918,2.7905,0,0,0,0,0,0,2.7982,2.8015,2.8041,2.7996,2.8002,2.8027,2.7999,2.8031,2.8026,2.8033,2.8075,2.8078,2.8036,2.8046,2.8079,2.8002,2.8051,2.8044,2.7998,2.7984,2.7972,2.7971,2.8143,0,0,0,0,0,2.796,2.7944,2.7973,2.7931,2.7932,2.7965,2.7959,2.7985,2.7992,2.7994,2.801,2.8014,2.8003,2.7994,2.7984,2.793,2.7934,2.7902,2.7891,2.7881,2.7874,2.7846,2.7832,2.7982,2.7982,2.7982,0,0,2.7912,2.7928,2.7916,2.7915,2.7923,2.7905,2.7966,2.7945,2.7932,2.7991,2.7959,2.797,2.7978,2.7934,2.7915,2.794,2.7834,2.7873,2.7865,2.7864,2.7839,2.7824,2.7812,2.7978,2.7978,2.7979,0,0,2.7817,2.7827,2.7794,2.78,2.7811,2.7834,2.7825,2.7845,2.7856,2.7825,2.7869,2.7853,2.7832,2.7836,2.7835,2.7741,2.7775,2.7737,2.7676,2.7649,2.7637,2.7627,2.7593,2.7581,2.773,2.773,2.773,0,2.7756,2.7732,2.7771,2.7748,2.7746,2.78,2.7765,2.7769,2.7776,2.7773,2.7801,2.7776,2.7785,2.7742,2.7719,2.7717,2.7708,2.7735,2.7636,2.7626,2.7617,2.7585,2.7573,2.7725,2.7726,2.7726,2.7727,0,2.7657,2.764,2.7611,2.7618,2.7613,2.7583,2.7617,2.7607,2.7633,2.7652,2.762,2.7633,2.7627,2.7619,2.7644,2.7579,2.7595,2.7628,2.7678,2.7597,2.7568,2.7557,2.7719,2.772,2.7722,2.7723,0,0,2.7512,2.7541,2.753,2.7534,2.7551,2.7537,2.751,2.7506,2.7496,2.7499,2.7477,2.7458,2.749,2.7489,2.7515,2.749,2.7416,2.7528,2.7529,2.7506,2.7346,2.732,2.7305,2.7438,2.7436,2.7435,2.7345,0,2.7421,2.7378,2.7413,2.7362,2.7347,2.7398,2.7374,2.7381,2.7398,2.7386,2.7405,2.739,2.7433,2.7433,2.7412,2.7429,2.7384,2.7436,2.7417,2.7416,2.7414,2.729,2.7263,2.7178,2.7334,2.7332,2.7331,0,2.731,2.731,2.7258,2.7279,2.7273,2.7252,2.7251,2.7239,2.7248,2.7262,2.7261,2.7293,2.7267,2.7316,2.7281,2.7315,2.731,2.7317,2.7315,2.7314,2.7368,2.7286,2.7152,2.7139,2.7313,2.7315,2.7316,0,2.7209,2.7195,2.7163,2.7165,2.7188,2.7171,2.718,2.7192,2.7187,2.7185,2.7183,2.7178,2.7175,2.717,2.72,2.7233,2.716,2.7212,2.717,2.7169,2.7152,2.7153,2.7015,2.7148,2.7149,2.7149,2.7149,0,2.7105,2.7071,2.7119,2.7098,2.7062,2.7102,2.7065,2.7079,2.7088,2.7071,2.7115,2.7097,2.7138,2.7125,2.7148,2.7115,2.7113,2.7123,2.713,2.7119,2.7118,2.7116,2.7122,2.7145,2.7146,2.7147,2.7147,0,2.6986,2.7017,2.6985,2.7009,2.7015,2.6987,2.7008,2.699,2.701,2.6988,2.6985,2.7015,2.7002,2.7032,2.7022,2.7038,2.6991,2.7006,2.6988,2.6993,2.6949,2.6953,2.6805,2.6787,2.6932,2.6931,2.6929,0,2.6918,2.6893,2.6916,2.6908,2.6915,2.6902,2.6898,2.6935,2.6929,2.6937,2.6918,2.6909,2.6903,2.6879,2.69,2.6893,2.6909,2.6858,2.6908,2.6898,2.6908,2.6909,2.6907,2.6847,2.6845,2.6844,2.6843,0,2.6793,2.6809,2.6802,2.68,2.6794,2.6794,2.6797,2.6788,2.6828,2.6818,2.6806,2.6802,2.6793,2.6783,2.6781,2.6788,2.6821,2.6827,2.6817,2.6806,2.6796,2.6801,2.6959,2.683,2.6831,2.6832,2.6833,2.6833,2.6697,2.6678,2.6691,2.6682,2.6688,2.669,2.6675,2.6693,2.6684,2.668,2.6703,2.6685,2.6695,2.6695,2.67,2.6686,2.6709,2.6695,2.6691,2.6687,2.668,2.6798,2.6686,2.6686,2.6686,2.6687,2.6687,0,2.6575,2.6586,2.6577,2.658,2.6573,2.6606,2.6611,2.6602,2.6587,2.6593,2.6587,2.6573,2.6563,2.6583,2.6577,2.6562,2.6577,2.6559,2.656,2.6562,2.6659,2.6669,2.6547,2.6547,2.6547,2.6547,2.6547,2.6547,2.651,2.648,2.6498,2.6471,2.6482,2.6466,2.6466,2.6468,2.6473,2.6455,2.6448,2.6462,2.6474,2.6468,2.6461,2.6467,2.6462,2.6439,2.645,2.6541,2.6555,2.6568,2.6577,2.6437,2.6437,2.6353,2.6353,2.6352]}]]